FW2330 Weather Reports


Display with metric or nautical units.
time (UTC)temp
F
wind
direction
speed
MPH
gust
MPH
rain 1hr
in
rain 24hr
in
rain mn
in
humidity
%
barometer
mb
20260508134557 80 355 0.0 0.0 0.00 0.34 0.32 76 1010.5
20260508133055 80 355 0.0 0.0 0.00 0.34 0.32 75 1010.0
20260508131606 80 355 0.0 1.0 0.00 0.34 0.32 74 1009.9
20260508130054 80 355 0.0 2.0 0.00 0.35 0.32 74 1009.9
20260508124553 79 355 0.0 1.0 0.00 0.35 0.32 75 1010.1
20260508123112 79 32 0.0 3.0 0.00 0.35 0.32 75 1009.4
20260508121601 79 32 0.0 0.0 0.00 0.35 0.32 76 1009.4
20260508120106 80 32 0.0 0.0 0.00 0.37 0.32 75 1009.2
20260508114559 80 32 0.0 0.0 0.00 0.37 0.32 74 1009.2
20260508113105 80 32 0.0 2.0 0.00 0.37 0.32 72 1009.3
20260508111551 80 13 0.0 4.0 0.00 0.37 0.32 72 1009.6
20260508110052 80 342 1.0 8.0 0.00 0.39 0.32 72 1009.1
20260508104549 80 340 3.0 8.0 0.00 0.39 0.32 71 1008.9
20260508103059 81 36 3.0 6.0 0.00 0.39 0.32 70 1008.5
20260508101554 81 41 1.0 4.0 0.00 0.39 0.32 68 1008.3
20260508100047 82 348 2.0 5.0 0.00 0.41 0.32 68 1007.8
20260508094546 82 26 0.0 3.0 0.00 0.41 0.32 67 1007.4
20260508093046 82 12 0.0 2.0 0.00 0.41 0.32 68 1007.3
20260508091545 82 360 1.0 5.0 0.00 0.41 0.32 69 1007.1
20260508090048 81 5 1.0 5.0 0.00 0.44 0.32 69 1007.3
20260508084544 83 5 2.0 6.0 0.00 0.44 0.32 68 1007.4
20260508083048 83 11 0.0 3.0 0.00 0.44 0.32 68 1006.7
20260508081543 84 13 1.0 6.0 0.00 0.44 0.32 68 1006.3
20260508080049 85 22 4.0 12.0 0.00 0.45 0.32 67 1006.5
20260508074543 87 96 2.0 8.0 0.00 0.45 0.32 66 1005.8
20260508073143 87 130 1.0 10.0 0.00 0.45 0.32 64 1006.3
20260508071541 89 113 2.0 12.0 0.00 0.45 0.32 62 1005.9
20260508070040 89 107 5.0 13.0 0.00 0.45 0.32 62 1005.9
20260508064541 89 142 6.0 13.0 0.00 0.45 0.32 62 1005.5
20260508063055 90 131 2.0 11.0 0.00 0.45 0.32 60 1005.8
20260508061536 90 148 7.0 11.0 0.00 0.45 0.32 56 1006.2
20260508060035 90 110 4.0 10.0 0.00 0.45 0.32 58 1006.0
20260508054534 90 114 2.0 9.0 0.00 0.45 0.32 60 1006.3
20260508053032 91 85 3.0 8.0 0.00 0.45 0.32 57 1006.4
20260508051531 91 157 3.0 10.0 0.00 0.45 0.32 58 1006.7
20260508050035 91 114 2.0 9.0 0.00 0.45 0.32 59 1006.8
20260508044528 91 150 2.0 10.0 0.00 0.45 0.32 57 1007.0
20260508043031 90 119 5.0 10.0 0.00 0.45 0.32 60 1007.2
20260508041526 91 108 3.0 7.0 0.00 0.45 0.32 58 1007.3
20260508040033 90 172 0.0 8.0 0.00 0.45 0.32 61 1007.6
20260508034523 89 154 2.0 9.0 0.00 0.45 0.32 60 1007.9
20260508033021 90 162 0.0 7.0 0.00 0.45 0.32 59 1008.0
20260508031521 90 153 0.0 8.0 0.00 0.45 0.32 61 1008.2
20260508030021 89 136 1.0 7.0 0.00 0.45 0.32 60 1008.4
20260508024518 89 223 0.0 4.0 0.00 0.45 0.32 60 1008.7
20260508023017 88 148 2.0 8.0 0.00 0.45 0.32 60 1008.7
20260508021517 88 160 0.0 8.0 0.00 0.45 0.32 62 1008.9
20260508020019 88 222 0.0 4.0 0.00 0.45 0.32 62 1009.1
20260508014513 88 175 0.0 5.0 0.00 0.45 0.32 62 1009.1
20260508013011 87 138 0.0 1.0 0.00 0.45 0.32 65 1009.1
20260508011514 87 355 0.0 2.0 0.00 0.45 0.32 66 1009.1
20260508010010 88 355 0.0 3.0 0.00 0.45 0.32 66 1009.5
20260508004513 87 32 0.0 4.0 0.00 0.45 0.32 66 1009.3
20260508003006 87 67 0.0 3.0 0.00 0.45 0.32 64 1009.6
20260508001503 86 129 0.0 3.0 0.00 0.45 0.32 64 1009.4
20260508000100 86 18 0.0 0.0 0.00 0.45 0.32 68 1009.4
20260507234555 84 18 0.0 2.0 0.01 0.45 0.32 72 1009.3
20260507233050 82 18 0.0 0.0 0.01 0.45 0.32 78 1009.2
20260507231548 81 19 0.0 0.0 0.02 0.45 0.32 78 1009.2
20260507230046 81 19 0.0 3.0 0.02 0.45 0.32 78 1009.1
20260507224552 81 345 0.0 1.0 0.02 0.44 0.31 80 1008.9
20260507223041 80 68 0.0 0.0 0.03 0.44 0.31 81 1008.6
20260507221539 79 88 0.0 0.0 0.03 0.43 0.30 81 1008.4
20260507220043 78 88 0.0 1.0 0.04 0.43 0.30 80 1008.3
20260507214538 78 89 0.0 0.0 0.05 0.42 0.28 80 1008.3
20260507213037 78 89 0.0 0.0 0.05 0.41 0.28 80 1008.0
20260507211536 78 90 0.0 0.0 0.06 0.40 0.27 80 1007.9
20260507210035 78 89 0.0 0.0 0.07 0.39 0.26 80 1007.8
20260507204536 78 90 0.0 0.0 0.07 0.37 0.24 80 1007.8
20260507203035 78 90 0.0 0.0 0.09 0.36 0.23 80 1007.6
20260507201533 78 90 0.0 0.0 0.09 0.34 0.21 80 1007.6
20260507200033 78 90 0.0 1.0 0.09 0.32 0.19 80 1007.6
20260507194532 78 90 0.0 2.0 0.09 0.30 0.17 80 1007.3
20260507193033 78 90 0.0 2.0 0.08 0.27 0.14 80 1007.1
20260507191530 79 90 0.0 1.0 0.08 0.25 0.12 80 1006.9
20260507190029 79 90 0.0 1.0 0.08 0.23 0.10 80 1007.0
20260507184526 79 90 0.0 0.0 0.06 0.21 0.08 80 1007.3
20260507183026 79 90 0.0 1.0 0.05 0.19 0.06 80 1007.5
20260507181525 79 90 0.0 0.0 0.03 0.17 0.04 80 1007.5
20260507180024 79 90 0.0 1.0 0.01 0.15 0.02 79 1007.6
20260507174533 79 90 0.0 1.0 0.01 0.15 0.02 79 1007.7
20260507173024 79 90 0.0 2.0 0.01 0.14 0.01 79 1007.8
20260507171519 79 90 0.0 0.0 0.01 0.14 0.01 79 1007.9
20260507170025 79 90 0.0 0.0 0.01 0.14 0.01 79 1008.0
20260507164516 79 90 0.0 0.0 0.01 0.14 0.01 79 1008.1
20260507163014 79 90 0.0 0.0 0.00 0.13 0.00 79 1008.4
20260507161513 79 90 0.0 0.0 0.00 0.13 0.00 79 1008.5
20260507160014 79 90 0.0 0.0 0.01 0.13 0.13 79 1008.6
20260507154510 79 90 0.0 0.0 0.01 0.13 0.13 79 1008.7
20260507153010 79 90 0.0 0.0 0.01 0.13 0.13 79 1008.7
20260507151509 79 90 0.0 1.0 0.01 0.13 0.13 78 1008.7
20260507150008 79 90 0.0 2.0 0.01 0.12 0.12 78 1008.9
20260507144511 80 90 1.0 4.0 0.01 0.12 0.12 77 1009.3
20260507143007 80 92 0.0 6.0 0.01 0.12 0.12 77 1009.4
20260507141507 80 32 0.0 0.0 0.01 0.12 0.12 77 1009.6
20260507140006 80 32 0.0 0.0 0.00 0.11 0.11 77 1009.4